Change the Weather History Date:

Monday, November 26, 2012

  Actual Average Record
Temperature  
Mean Temperature 25 °F 32 °F  
Max Temperature 31 °F 36 °F 54 °F (2002)
Min Temperature 19 °F 27 °F -3 °F (1985)
Degree Days  
Heating Degree Days 40 33  
Month to date heating degree days 877 811  
Since 1 July heating degree days 2767 2496  
Moisture  
Dew Point 26 °F    
Average Humidity 93    
Maximum Humidity 100    
Minimum Humidity 85    
Precipitation  
Precipitation 0.07 in 0.20 in 1.23 in (1969)
Month to date precipitation 4.53 5.19  
Year to date precipitation 58.44 55.63  
Snow  
Snow 1.10 in 0.60 in 7.30 in (1990)
Month to date snowfall 13.3 10.8  
Since 1 July snowfall 14.7 11.6  
Since 1 September snowfall 14.7 11.6  
Snow Depth 6.00 in    
Sea Level Pressure  
Sea Level Pressure 30.27 in    
Wind  
Wind Speed 1 mph (ENE)    
Max Wind Speed 7 mph    
Max Gust Speed 8 mph    
Visibility 8 miles    
Events Fog , Snow    
T = Trace of Precipitation, MM = Missing Value Source: NWS Daily Summary

Daily Weather History Graph

Daily Weather History Graph

Search for Another Location

Airport or City:

Trip Planner

Search our weather history database for the weather conditions in past years. The results will help you decide how hot, cold, wet, or windy it might be!

Date:

Astronomy

Nov. 26, 2012 Rise Set
Actual Time 8:12 AM AKST 3:18 PM AKST
Civil Twilight 7:23 AM AKST 4:07 PM AKST
Nautical Twilight 6:32 AM AKST 4:58 PM AKST
Astronomical Twilight 5:44 AM AKST 5:46 PM AKST
Moon 2:27 PM AKST (11/26) 6:14 AM AKST (11/26)
Length of Visible Light 8h 44m
Length of Day
7h 06m
Waxing Gibbous, 97% of the Moon is Illuminated
Nov 26
Waxing Gibbous
Nov 28
Full
Dec 6
Last Quarter
Dec 12
New
Dec 19
First Quarter

Hourly Weather History & Observations

Time (AKST) Temp. Windchill Dew Point Humidity Pressure Visibility Wind Dir Wind Speed Gust Speed Precip Events Conditions
12:53 AM 30.0 °F - 28.9 °F 96% 30.26 in 3.0 mi Calm Calm - 0.02 in Snow Light Snow
1:53 AM 30.0 °F - 28.9 °F 96% 30.26 in 4.0 mi Calm Calm - 0.01 in Snow Light Snow
3:53 AM 30.0 °F 26.5 °F 28.0 °F 92% 30.27 in 2.0 mi East 3.5 mph - 0.01 in Snow Light Snow
4:53 AM 30.0 °F 26.5 °F 28.0 °F 92% 30.27 in 2.5 mi ENE 3.5 mph - 0.01 in Snow Light Snow
4:56 AM 30.2 °F 26.7 °F 28.4 °F 93% 30.27 in 4.0 mi ENE 3.5 mph - 0.00 in Snow Light Snow
5:53 AM 30.0 °F 24.1 °F 27.0 °F 88% 30.27 in 10.0 mi ENE 5.8 mph - 0.01 in Snow Light Snow
6:53 AM 30.0 °F - 26.1 °F 85% 30.28 in 9.0 mi Calm Calm - 0.00 in Snow Light Snow
7:17 AM 28.4 °F - 26.6 °F 93% 30.28 in 5.0 mi Calm Calm - 0.00 in Snow Light Snow
7:53 AM 28.9 °F - 27.0 °F 92% 30.29 in 3.0 mi Calm Calm - 0.00 in Snow Light Snow
8:33 AM 28.4 °F - 26.6 °F 93% 30.29 in 7.0 mi Calm Calm - 0.00 in Snow Light Snow
8:53 AM 28.9 °F - 27.0 °F 92% 30.30 in 7.0 mi Calm Calm - 0.00 in Snow Light Snow
9:53 AM 30.0 °F - 27.0 °F 88% 30.31 in 7.0 mi Calm Calm - 0.01 in Snow Light Snow
10:53 AM 30.0 °F - 27.0 °F 88% 30.32 in 10.0 mi Calm Calm - 0.00 in Snow Light Snow
11:53 AM 30.0 °F - 28.0 °F 92% 30.32 in 10.0 mi Calm Calm - 0.00 in Snow Light Snow
12:53 PM 30.0 °F - 28.0 °F 92% 30.30 in 10.0 mi Calm Calm - 0.00 in   Overcast
1:53 PM 30.0 °F - 27.0 °F 88% 30.30 in 10.0 mi Calm Calm - N/A   Overcast
2:53 PM 30.0 °F - 27.0 °F 88% 30.29 in 10.0 mi Calm Calm - N/A   Mostly Cloudy
3:53 PM 27.0 °F - 26.1 °F 96% 30.28 in 10.0 mi Calm Calm - N/A   Mostly Cloudy
4:53 PM 28.0 °F - 27.0 °F 96% 30.27 in 10.0 mi Calm Calm - N/A   Overcast
5:53 PM 28.0 °F - 27.0 °F 96% 30.25 in 10.0 mi Calm Calm - N/A   Overcast
6:12 PM 26.6 °F - 26.6 °F 100% 30.24 in 8.0 mi Calm Calm - N/A   Overcast
6:53 PM 27.0 °F - 26.1 °F 96% 30.25 in 10.0 mi Calm Calm - N/A   Overcast
7:53 PM 26.1 °F 21.9 °F 25.0 °F 96% 30.24 in 8.0 mi East 3.5 mph - N/A   Overcast
8:53 PM 24.1 °F - 24.1 °F 100% 30.23 in 9.0 mi Calm Calm - N/A   Mostly Cloudy
9:53 PM 23.0 °F - 21.9 °F 96% 30.23 in 10.0 mi Calm Calm - N/A   Overcast
10:53 PM 19.9 °F - 19.0 °F 96% 30.22 in 10.0 mi Calm Calm - N/A   Mostly Cloudy
11:53 PM 19.0 °F - 18.0 °F 96% 30.20 in 10.0 mi Calm Calm - N/A Fog Patches of Fog